Regional Weather Roundup
Issued by NWS

Home | Current Version | Previous Version | Text Only | Print | Product List | Glossary Off
Versions: 1 2 3 4 5 6 7 8 9 10 11 12 13 14 15 16 17 18 19 20 21 22 23 24 25 26 27 28 29 30 31 32 33 34 35 36 37 38 39 40 41 42 43 44 45 46 47 48 49 50

000
ASUS43 KBIS 220510
RWRND

NORTH DAKOTA REGIONAL WEATHER ROUNDUP
NATIONAL WEATHER SERVICE BISMARCK ND
1200 AM CDT SAT JUL 22 2017

NOTE: "FAIR" INDICATES FEW OR NO CLOUDS BELOW 12,000 FEET WITH NO
SIGNIFICANT WEATHER AND/OR OBSTRUCTIONS TO VISIBILITY.


NDZ001>003-009>011-017-220600-
NORTHWEST NORTH DAKOTA

CITY           SKY/WX    TMP DP  RH WIND       PRES   REMARKS
WILLISTON      CLEAR     70  46  42 E3        29.89R
MINOT          CLEAR     65  62  90 CALM      29.85R
MINOT AFB      CLEAR     64  62  92 CALM      29.83R
$$

NDZ018>021-031>035-040>046-220600-
SOUTHWEST NORTH DAKOTA

CITY           SKY/WX    TMP DP  RH WIND       PRES   REMARKS
BISMARCK       CLOUDY    65  61  87 W5        29.84F
DICKINSON      CLEAR     68  40  35 NW9       29.89S
GARRISON         N/A     63  59  87 N7        29.86R
HETTINGER ARPT CLEAR     64  45  49 VRB5      29.92F
$$

NDZ004>008-012>016-024-026-027-054-220600-
NORTHEAST NORTH DAKOTA

CITY           SKY/WX    TMP DP  RH WIND       PRES   REMARKS
GRAND FORKS    PTCLDY    72  72 100 CALM      29.75R
GRND FRKS AFB  CLOUDY    71  71 100 S3        29.76R
DEVILS LAKE    TSTM      66  64  94 NW15G35   29.84R FOG
$$

NDZ022-023-025-028>030-036>039-047>053-220600-
SOUTHEAST NORTH DAKOTA

CITY           SKY/WX    TMP DP  RH WIND       PRES   REMARKS
FARGO          CLOUDY    73  68  84 S9        29.76F
JAMESTOWN      CLOUDY    73  64  73 S8        29.80F
$$




USA.gov is the U.S. government's official web portal to all federal, state and local government web resources and services.